Regional Weather Roundup
Issued by NWS Albany, NY

Home | Current Version | Previous Version | Graphics & Text | Print | Product List | Glossary Off
Versions: 1 2 3 4 5 6 7 8 9 10 11 12 13 14 15 16 17 18 19 20 21 22 23 24 25 26 27

000
ASUS41 KALY 191210
RWRALY

NEW YORK STATE HOURLY WEATHER ROUNDUP
NATIONAL WEATHER SERVICE ALBANY NY
800 AM EDT SAT APR 19 2014

NOTE: "FAIR" INDICATES FEW OR NO CLOUDS BELOW 12,000 FEET WITH NO
SIGNIFICANT WEATHER AND/OR NO OBSTRUCTIONS TO VISIBILITY.

NYZ032-033-038>043-046>054-057>066-NYZ062>081-191300-
EAST


CITY           SKY/WX    TMP DP  RH WIND       PRES   REMARKS
ALBANY         MOSUNNY   45  32  60 W17       30.26R
GLENS FALLS    SUNNY     42  32  67 CALM      30.25R
POUGHKEEPSIE   MOSUNNY   42  33  70 CALM      30.25R
NEWBURGH       SUNNY     45  28  53 W10       30.26
MONTGOMERY     MOSUNNY   46  36  68 NW7       30.25R
WHITE PLAINS   MOSUNNY   43  35  73 NW3       30.23S
ISLIP          MOSUNNY   44  39  82 CALM      30.24R
NEW YORK CITY  PTSUNNY   46  35  65 NW7       30.26R
CENTRAL PARK   MOSUNNY   46  34  62 CALM      30.28R
$$

NYZ005>009-017-018-044>046-055-056-191300-
CENTRAL


CITY           SKY/WX    TMP DP  RH WIND       PRES   REMARKS
FULTON         CLOUDY    38  32  79 NW10      30.35R WCI  31
SYRACUSE       MOSUNNY   39  32  76 NW9       30.35R WCI  33
ROME           CLOUDY    36  32  85 NW9       30.33R WCI  29
ELMIRA         SUNNY     42  32  67 CALM      30.32R
BINGHAMTON     SUNNY     37  27  67 NW10      30.28R WCI  30
MONTICELLO     MOSUNNY   39  34  81 W6        30.27R WCI  35
$$

NYZ026>034-041>043-191300-
NORTH


CITY           SKY/WX    TMP DP  RH WIND       PRES   REMARKS
WATERTOWN      CLOUDY    38  32  79 W5        30.36R WCI  34
FORT DRUM      NOT AVBL
MASSENA        CLOUDY    40  36  86 NW9       30.32R WCI  34
SARANAC LAKE   MIX PCPN  35  33  92 W7        30.21R FOG     WCI  29
PLATTSBURGH    LGT RAIN  42  39  89 NW7       30.24R
$$

NYZ001>004-010>016-019>021-191300-
WEST


CITY           SKY/WX    TMP DP  RH WIND       PRES   REMARKS
NIAGARA FALLS  MOSUNNY   36  29  75 NW12      30.40R WCI  28
BUFFALO        SUNNY     37  30  75 NW9       30.40R WCI  30
DUNKIRK        SUNNY     34  29  82 NW5       30.41R WCI  30
JAMESTOWN      SUNNY     32  27  80 N6        30.35R WCI  26
WELLSVILLE     SUNNY     34  28  79 NW7       30.32R WCI  28
ROCHESTER      SUNNY     38  30  73 NW10      30.38R WCI  31
PENN YAN       SUNNY     39  30  70 NW10      30.35R WCI  32
$$

             KEY
       WCI = WIND CHILL INDEX
       VSB = VISIBILITY
       HX  = HEAT INDEX
$$



USA.gov is the U.S. government's official web portal to all federal, state and local government web resources and services.